Alexandria, Egypt

8:07 PM EET on April 23, 2017 (GMT +0200)
Alexandria International

Weather History for HEAX - May, 2013

Change the Weather History Date:

Friday, May 24, 2013

  Actual Average Record
Temperature  
Mean Temperature 78 °F -  
Max Temperature 86 °F 80 °F 90 °F (2015)
Min Temperature 69 °F 68 °F 55 °F (2004)
Cooling Degree Days 12    
Growing Degree Days 28 (Base 50)    
Moisture  
Dew Point 64 °F    
Average Humidity 64    
Maximum Humidity 83    
Minimum Humidity 31    
Precipitation  
Precipitation 0.00 in 0.00 in - ()
Sea Level Pressure  
Sea Level Pressure 29.91 in    
Wind  
Wind Speed 6 mph ()    
Max Wind Speed 17 mph    
Max Gust Speed -    
Visibility 5.5 miles    
Events      
Averages and records for this station are not official NWS values.
T = Trace of Precipitation, MM = Missing Value Source: Averaged Metar Reports

Daily Weather History Graph

Daily Weather History Graph

Search for Another Location

Airport or City:

Trip Planner

Search our weather history database for the weather conditions in past years. The results will help you decide how hot, cold, wet, or windy it might be!

Date:

Astronomy

May. 24, 2013 Rise Set
Actual Time 4:59 AM EET 6:54 PM EET
Civil Twilight 4:32 AM EET 7:21 PM EET
Nautical Twilight 3:59 AM EET 7:54 PM EET
Astronomical Twilight 3:24 AM EET 8:29 PM EET
Moon 6:16 PM EET (5/24) 4:10 AM EET (5/24)
Length of Visible Light 14h 49m
Length of Day
13h 55m
Waxing Gibbous, 99% of the Moon is Illuminated
May 24
Waxing Gibbous
May 25
Full
May 31
Last Quarter
Jun 8
New
Jun 16
First Quarter

Hourly Weather History & Observations

Time (EET) Temp. Heat Index Dew Point Humidity Pressure Visibility Wind Dir Wind Speed Gust Speed Precip Events Conditions
12:00 AM 75.2 °F - 64.4 °F 69% 29.89 in - ESE 6.9 mph - N/A   Clear
1:00 AM 73.4 °F - 62.6 °F 69% 29.86 in - East 3.5 mph - N/A   Clear
2:00 AM 72 °F - 61 °F 59% 29.86 in 6 mi Calm Calm - -  
2:00 AM 71.6 °F - 60.8 °F 69% 29.86 in - Calm Calm - N/A   Clear
3:00 AM 69.8 °F - 59.0 °F 68% 29.86 in - Calm Calm - N/A   Clear
4:00 AM 69.8 °F - 59.0 °F 68% 29.83 in - Calm Calm - N/A   Clear
5:00 AM 69.8 °F - 60.8 °F 73% 29.86 in 3.7 mi East 2.3 mph - N/A   Unknown
6:00 AM 71.6 °F - 62.6 °F 73% 29.86 in 3.7 mi Calm Calm - N/A   Unknown
7:00 AM 77.0 °F - 62.6 °F 61% 29.89 in - NNE 5.8 mph - N/A   Clear
8:00 AM 80.6 °F 82.3 °F 64.4 °F 58% 29.92 in - NW 6.9 mph - N/A   Clear
9:00 AM 82.4 °F 82.9 °F 60.8 °F 48% 29.92 in - North 5.8 mph - N/A   Clear
10:00 AM 84.2 °F 85.0 °F 62.6 °F 48% 29.92 in - NW 8.1 mph - N/A   Clear
11:00 AM 84.2 °F 85.6 °F 64.4 °F 51% 29.92 in - North 8.1 mph - N/A   Clear
12:00 PM 86.0 °F 88.2 °F 66.2 °F 51% 29.92 in - NNW 11.5 mph - N/A   Clear
1:00 PM 86.0 °F 87.3 °F 64.4 °F 48% 29.92 in - NNW 11.5 mph - N/A   Clear
2:00 PM 85 °F - 59 °F 31% 29.94 in 6 mi NNW 16.1 mph - -   Clear
2:00 PM 84.2 °F 83.8 °F 59.0 °F 42% 29.92 in - NNW 16.1 mph - N/A   Clear
3:00 PM 80.6 °F 83.2 °F 68.0 °F 65% 29.92 in 6.2 mi North 17.3 mph - N/A   Mostly Cloudy
4:00 PM 78.8 °F - 68.0 °F 69% 29.92 in - North 13.8 mph - N/A   Clear
5:00 PM 78.8 °F - 66.2 °F 65% 29.95 in - North 13.8 mph - N/A   Clear
6:00 PM 75.2 °F - 68.0 °F 78% 29.95 in 6.2 mi North 13.8 mph - N/A   Mostly Cloudy
7:00 PM 73.4 °F - 66.2 °F 78% 29.95 in - North 9.2 mph - N/A   Clear
8:00 PM 74 °F - 64 °F 62% 29.95 in 6 mi North 11.5 mph - -   Mostly Cloudy
8:00 PM 73.4 °F - 64.4 °F 73% 29.95 in - North 11.5 mph - N/A   Clear
9:00 PM 71.6 °F - 66.2 °F 83% 29.98 in - North 12.7 mph - N/A   Clear
10:00 PM 71.6 °F - 66.2 °F 83% 29.98 in - NNW 11.5 mph - N/A   Clear
11:00 PM 73.4 °F - 66.2 °F 78% 29.98 in 6.2 mi NNW 13.8 mph - N/A   Scattered Clouds